Year,Month,Day,Hour,Minute,Value (Times are PST for temperature in C)
2013,08,10,00,00,14.40
2013,08,10,00,01,14.40
2013,08,10,00,02,14.40
2013,08,10,00,03,14.40
2013,08,10,00,04,14.30
2013,08,10,00,05,14.30
2013,08,10,00,06,14.30
2013,08,10,00,07,14.20
2013,08,10,00,08,14.20
2013,08,10,00,09,14.20
2013,08,10,00,10,14.20
2013,08,10,00,11,14.20
2013,08,10,00,12,14.20
2013,08,10,00,13,14.20
2013,08,10,00,14,14.20
2013,08,10,00,15,14.20
2013,08,10,00,16,14.20
2013,08,10,00,17,14.10
2013,08,10,00,18,14.10
2013,08,10,00,19,14.10
2013,08,10,00,20,14.10
2013,08,10,00,21,14.10
2013,08,10,00,22,14.10
2013,08,10,00,23,14.10
2013,08,10,00,24,14.10
2013,08,10,00,25,14.10
2013,08,10,00,26,14.10
2013,08,10,00,27,14.10
2013,08,10,00,28,14.10
2013,08,10,00,29,14.00
2013,08,10,00,30,14.00
2013,08,10,00,31,14.00
2013,08,10,00,32,14.00
2013,08,10,00,33,14.00
2013,08,10,00,34,14.00
2013,08,10,00,35,14.00
2013,08,10,00,36,14.00
2013,08,10,00,37,14.00
2013,08,10,00,38,13.90
2013,08,10,00,39,13.80
2013,08,10,00,40,13.80
2013,08,10,00,41,13.70
2013,08,10,00,42,13.70
2013,08,10,00,43,13.70
2013,08,10,00,44,13.60
2013,08,10,00,45,13.50
2013,08,10,00,46,13.50
2013,08,10,00,47,13.50
2013,08,10,00,48,13.50
2013,08,10,00,49,13.40
2013,08,10,00,50,13.40
2013,08,10,00,51,13.40
2013,08,10,00,52,13.40
2013,08,10,00,53,13.40
2013,08,10,00,54,13.40
2013,08,10,00,55,13.40
2013,08,10,00,56,13.40
2013,08,10,00,57,13.40
2013,08,10,00,58,13.40
2013,08,10,00,59,13.40
2013,08,10,01,00,13.40
2013,08,10,01,01,13.40
2013,08,10,01,02,13.40
2013,08,10,01,03,13.40
2013,08,10,01,04,13.30
2013,08,10,01,05,13.30
2013,08,10,01,06,13.30
2013,08,10,01,07,13.20
2013,08,10,01,08,13.10
2013,08,10,01,09,13.00
2013,08,10,01,10,13.00
2013,08,10,01,11,12.90
2013,08,10,01,12,12.90
2013,08,10,01,13,12.90
2013,08,10,01,14,12.80
2013,08,10,01,15,12.80
2013,08,10,01,16,12.80
2013,08,10,01,17,12.90
2013,08,10,01,18,12.90
2013,08,10,01,19,12.90
2013,08,10,01,20,12.90
2013,08,10,01,21,12.90
2013,08,10,01,22,12.90
2013,08,10,01,23,12.90
2013,08,10,01,24,13.00
2013,08,10,01,25,13.00
2013,08,10,01,26,13.00
2013,08,10,01,27,13.00
2013,08,10,01,28,13.00
2013,08,10,01,29,13.10
2013,08,10,01,30,13.10
2013,08,10,01,31,13.10
2013,08,10,01,32,13.10
2013,08,10,01,33,13.10
2013,08,10,01,34,13.20
2013,08,10,01,35,13.20
2013,08,10,01,36,13.20
2013,08,10,01,37,13.30
2013,08,10,01,38,13.30
2013,08,10,01,39,13.40
2013,08,10,01,40,13.40
2013,08,10,01,41,13.40
2013,08,10,01,42,13.50
2013,08,10,01,43,13.50
2013,08,10,01,44,13.50
2013,08,10,01,45,13.60
2013,08,10,01,46,13.60
2013,08,10,01,47,13.60
2013,08,10,01,48,13.60
2013,08,10,01,49,13.70
2013,08,10,01,50,13.70
2013,08,10,01,51,13.70
2013,08,10,01,52,13.70
2013,08,10,01,53,13.70
2013,08,10,01,54,13.70
2013,08,10,01,55,13.70
2013,08,10,01,56,13.70
2013,08,10,01,57,13.70
2013,08,10,01,58,13.70
2013,08,10,01,59,13.70
2013,08,10,02,00,13.70
2013,08,10,02,01,13.70
2013,08,10,02,02,13.70
2013,08,10,02,03,13.70
2013,08,10,02,04,13.70
2013,08,10,02,05,13.60
2013,08,10,02,06,13.60
2013,08,10,02,07,13.50
2013,08,10,02,08,13.40
2013,08,10,02,09,13.20
2013,08,10,02,10,13.00
2013,08,10,02,11,12.90
2013,08,10,02,12,12.70
2013,08,10,02,13,12.60
2013,08,10,02,14,12.50
2013,08,10,02,15,12.40
2013,08,10,02,16,12.30
2013,08,10,02,17,12.20
2013,08,10,02,18,12.20
2013,08,10,02,19,12.00
2013,08,10,02,20,12.00
2013,08,10,02,21,11.90
2013,08,10,02,22,11.90
2013,08,10,02,23,11.90
2013,08,10,02,24,11.90
2013,08,10,02,25,11.80
2013,08,10,02,26,11.80
2013,08,10,02,27,11.80
2013,08,10,02,28,11.80
2013,08,10,02,29,11.80
2013,08,10,02,30,11.80
2013,08,10,02,31,11.80
2013,08,10,02,32,11.80
2013,08,10,02,33,11.80
2013,08,10,02,34,11.80
2013,08,10,02,35,11.70
2013,08,10,02,36,11.70
2013,08,10,02,37,11.60
2013,08,10,02,38,11.60
2013,08,10,02,39,11.60
2013,08,10,02,40,11.60
2013,08,10,02,41,11.50
2013,08,10,02,42,11.50
2013,08,10,02,43,11.60
2013,08,10,02,44,11.60
2013,08,10,02,45,11.60
2013,08,10,02,46,11.60
2013,08,10,02,47,11.60
2013,08,10,02,48,11.60
2013,08,10,02,49,11.60
2013,08,10,02,50,11.60
2013,08,10,02,51,11.60
2013,08,10,02,52,11.60
2013,08,10,02,53,11.60
2013,08,10,02,54,11.60
2013,08,10,02,55,11.60
2013,08,10,02,56,11.60
2013,08,10,02,57,11.60
2013,08,10,02,58,11.60
2013,08,10,02,59,11.60
2013,08,10,03,00,11.60
2013,08,10,03,01,11.60
2013,08,10,03,02,11.60
2013,08,10,03,03,11.60
2013,08,10,03,04,11.60
2013,08,10,03,05,11.60
2013,08,10,03,06,11.60
2013,08,10,03,07,11.60
2013,08,10,03,08,11.60
2013,08,10,03,09,11.60
2013,08,10,03,10,11.60
2013,08,10,03,11,11.60
2013,08,10,03,12,11.70
2013,08,10,03,13,11.70
2013,08,10,03,14,11.70
2013,08,10,03,15,11.70
2013,08,10,03,16,11.70
2013,08,10,03,17,11.70
2013,08,10,03,18,11.70
2013,08,10,03,19,11.70
2013,08,10,03,20,11.70
2013,08,10,03,21,11.70
2013,08,10,03,22,11.70
2013,08,10,03,23,11.70
2013,08,10,03,24,11.70
2013,08,10,03,25,11.70
2013,08,10,03,26,11.70
2013,08,10,03,27,11.70
2013,08,10,03,28,11.70
2013,08,10,03,29,11.70
2013,08,10,03,30,11.70
2013,08,10,03,31,11.80
2013,08,10,03,32,11.80
2013,08,10,03,33,11.80
2013,08,10,03,34,11.80
2013,08,10,03,35,11.80
2013,08,10,03,36,11.90
2013,08,10,03,37,11.90
2013,08,10,03,38,12.00
2013,08,10,03,39,12.00
2013,08,10,03,40,12.10
2013,08,10,03,41,12.10
2013,08,10,03,42,12.20
2013,08,10,03,43,12.30
2013,08,10,03,44,12.40
2013,08,10,03,45,12.50
2013,08,10,03,46,12.60
2013,08,10,03,47,12.70
2013,08,10,03,48,12.80
2013,08,10,03,49,12.80
2013,08,10,03,50,12.80
2013,08,10,03,51,12.90
2013,08,10,03,52,12.90
2013,08,10,03,53,12.90
2013,08,10,03,54,12.90
2013,08,10,03,55,12.90
2013,08,10,03,56,13.00
2013,08,10,03,57,13.00
2013,08,10,03,58,13.00
2013,08,10,03,59,13.10
2013,08,10,04,00,13.20
2013,08,10,04,01,13.30
2013,08,10,04,02,13.40
2013,08,10,04,03,13.50
2013,08,10,04,04,13.70
2013,08,10,04,05,13.80
2013,08,10,04,06,13.90
2013,08,10,04,07,14.00
2013,08,10,04,08,14.10
2013,08,10,04,09,14.20
2013,08,10,04,10,14.20
2013,08,10,04,11,14.30
2013,08,10,04,12,14.40
2013,08,10,04,13,14.50
2013,08,10,04,14,14.50
2013,08,10,04,15,14.60
2013,08,10,04,16,14.60
2013,08,10,04,17,14.60
2013,08,10,04,18,14.70
2013,08,10,04,19,14.70
2013,08,10,04,20,14.80
2013,08,10,04,21,14.80
2013,08,10,04,22,15.00
2013,08,10,04,23,15.10
2013,08,10,04,24,15.20
2013,08,10,04,25,15.40
2013,08,10,04,26,15.50
2013,08,10,04,27,15.70
2013,08,10,04,28,15.80
2013,08,10,04,29,16.00
2013,08,10,04,30,16.20
2013,08,10,04,31,16.30
2013,08,10,04,32,16.50
2013,08,10,04,33,16.60
2013,08,10,04,34,16.80
2013,08,10,04,35,16.90
2013,08,10,04,36,17.10
2013,08,10,04,37,17.20
2013,08,10,04,38,17.30
2013,08,10,04,39,17.40
2013,08,10,04,40,17.40
2013,08,10,04,41,17.40
2013,08,10,04,42,17.40
2013,08,10,04,43,17.40
2013,08,10,04,44,17.40
2013,08,10,04,45,17.40
2013,08,10,04,46,17.40
2013,08,10,04,47,17.20
2013,08,10,04,48,16.90
2013,08,10,04,49,16.50
2013,08,10,04,50,16.00
2013,08,10,04,51,15.60
2013,08,10,04,52,15.20
2013,08,10,04,53,15.00
2013,08,10,04,54,14.80
2013,08,10,04,55,14.60
2013,08,10,04,56,14.40
2013,08,10,04,57,14.30
2013,08,10,04,58,14.20
2013,08,10,04,59,14.00
2013,08,10,05,00,13.90
2013,08,10,05,01,13.80
2013,08,10,05,02,13.70
2013,08,10,05,03,13.60
2013,08,10,05,04,13.50
2013,08,10,05,05,13.40
2013,08,10,05,06,13.30
2013,08,10,05,07,13.30
2013,08,10,05,08,13.30
2013,08,10,05,09,13.30
2013,08,10,05,10,13.30
2013,08,10,05,11,13.30
2013,08,10,05,12,13.30
2013,08,10,05,13,13.30
2013,08,10,05,14,13.30
2013,08,10,05,15,13.30
2013,08,10,05,16,13.30
2013,08,10,05,17,13.30
2013,08,10,05,18,13.20
2013,08,10,05,19,13.10
2013,08,10,05,20,13.00
2013,08,10,05,21,13.00
2013,08,10,05,22,12.90
2013,08,10,05,23,12.80
2013,08,10,05,24,12.80
2013,08,10,05,25,12.80
2013,08,10,05,26,12.80
2013,08,10,05,27,12.80
2013,08,10,05,28,12.80
2013,08,10,05,29,12.80
2013,08,10,05,30,12.80
2013,08,10,05,31,12.80
2013,08,10,05,32,12.80
2013,08,10,05,33,12.80
2013,08,10,05,34,12.80
2013,08,10,05,35,12.80
2013,08,10,05,36,12.80
2013,08,10,05,37,12.80
2013,08,10,05,38,12.70
2013,08,10,05,39,12.70
2013,08,10,05,40,12.70
2013,08,10,05,41,12.60
2013,08,10,05,42,12.60
2013,08,10,05,43,12.60
2013,08,10,05,44,12.60
2013,08,10,05,45,12.50
2013,08,10,05,46,12.50
2013,08,10,05,47,12.60
2013,08,10,05,48,12.60
2013,08,10,05,49,12.60
2013,08,10,05,50,12.60
2013,08,10,05,51,12.60
2013,08,10,05,52,12.60
2013,08,10,05,53,12.60
2013,08,10,05,54,12.60
2013,08,10,05,55,12.70
2013,08,10,05,56,12.70
2013,08,10,05,57,12.70
2013,08,10,05,58,12.70
2013,08,10,05,59,12.80
2013,08,10,06,00,12.80
2013,08,10,06,01,12.80
2013,08,10,06,02,12.80
2013,08,10,06,03,12.80
2013,08,10,06,04,12.80
2013,08,10,06,05,12.80
2013,08,10,06,06,12.80
2013,08,10,06,07,12.90
2013,08,10,06,08,12.90
2013,08,10,06,09,12.90
2013,08,10,06,10,12.90
2013,08,10,06,11,12.90
2013,08,10,06,12,13.00
2013,08,10,06,13,13.00
2013,08,10,06,14,13.00
2013,08,10,06,15,13.00
2013,08,10,06,16,13.00
2013,08,10,06,17,13.10
2013,08,10,06,18,13.10
2013,08,10,06,19,13.10
2013,08,10,06,20,13.20
2013,08,10,06,21,13.20
2013,08,10,06,22,13.20
2013,08,10,06,23,13.20
2013,08,10,06,24,13.30
2013,08,10,06,25,13.30
2013,08,10,06,26,13.30
2013,08,10,06,27,13.30
2013,08,10,06,28,13.30
2013,08,10,06,29,13.30
2013,08,10,06,30,13.30
2013,08,10,06,31,13.30
2013,08,10,06,32,13.30
2013,08,10,06,33,13.30
2013,08,10,06,34,13.30
2013,08,10,06,35,13.30
2013,08,10,06,36,13.30
2013,08,10,06,37,13.30
2013,08,10,06,38,13.40
2013,08,10,06,39,13.40
2013,08,10,06,40,13.40
2013,08,10,06,41,13.50
2013,08,10,06,42,13.50
2013,08,10,06,43,13.60
2013,08,10,06,44,13.60
2013,08,10,06,45,13.60
2013,08,10,06,46,13.70
2013,08,10,06,47,13.70
2013,08,10,06,48,13.70
2013,08,10,06,49,13.70
2013,08,10,06,50,13.70
2013,08,10,06,51,13.70
2013,08,10,06,52,13.80
2013,08,10,06,53,13.80
2013,08,10,06,54,13.80
2013,08,10,06,55,13.80
2013,08,10,06,56,13.80
2013,08,10,06,57,13.90
2013,08,10,06,58,13.90
2013,08,10,06,59,13.90
2013,08,10,07,00,13.90
2013,08,10,07,01,13.90
2013,08,10,07,02,14.00
2013,08,10,07,03,14.00
2013,08,10,07,04,14.00
2013,08,10,07,05,14.00
2013,08,10,07,06,14.10
2013,08,10,07,07,14.10
2013,08,10,07,08,14.10
2013,08,10,07,09,14.20
2013,08,10,07,10,14.20
2013,08,10,07,11,14.20
2013,08,10,07,12,14.20
2013,08,10,07,13,14.20
2013,08,10,07,14,14.20
2013,08,10,07,15,14.20
2013,08,10,07,16,14.10
2013,08,10,07,17,14.10
2013,08,10,07,18,14.10
2013,08,10,07,19,14.00
2013,08,10,07,20,13.90
2013,08,10,07,21,13.90
2013,08,10,07,22,13.80
2013,08,10,07,23,13.70
2013,08,10,07,24,13.70
2013,08,10,07,25,13.60
2013,08,10,07,26,13.60
2013,08,10,07,27,13.50
2013,08,10,07,28,13.40
2013,08,10,07,29,13.40
2013,08,10,07,30,13.30
2013,08,10,07,31,13.30
2013,08,10,07,32,13.20
2013,08,10,07,33,13.10
2013,08,10,07,34,13.10
2013,08,10,07,35,13.10
2013,08,10,07,36,13.10
2013,08,10,07,37,13.10
2013,08,10,07,38,13.10
2013,08,10,07,39,13.10
2013,08,10,07,40,13.10
2013,08,10,07,41,13.00
2013,08,10,07,42,13.00
2013,08,10,07,43,13.00
2013,08,10,07,44,13.00
2013,08,10,07,45,13.00
2013,08,10,07,46,13.00
2013,08,10,07,47,13.00
2013,08,10,07,48,13.00
2013,08,10,07,49,13.00
2013,08,10,07,50,13.00
2013,08,10,07,51,13.10
2013,08,10,07,52,13.10
2013,08,10,07,53,13.10
2013,08,10,07,54,13.20
2013,08,10,07,55,13.20
2013,08,10,07,56,13.30
2013,08,10,07,57,13.30
2013,08,10,07,58,13.30
2013,08,10,07,59,13.30
2013,08,10,08,00,13.30
2013,08,10,08,01,13.40
2013,08,10,08,02,13.40
2013,08,10,08,03,13.50
2013,08,10,08,04,13.50
2013,08,10,08,05,13.60
2013,08,10,08,06,13.60
2013,08,10,08,07,13.70
2013,08,10,08,08,13.70
2013,08,10,08,09,13.80
2013,08,10,08,10,13.80
2013,08,10,08,11,13.90
2013,08,10,08,12,14.00
2013,08,10,08,13,14.00
2013,08,10,08,14,14.20
2013,08,10,08,15,14.20
2013,08,10,08,16,14.30
2013,08,10,08,17,14.40
2013,08,10,08,18,14.50
2013,08,10,08,19,14.60
2013,08,10,08,20,14.80
2013,08,10,08,21,14.90
2013,08,10,08,22,15.00
2013,08,10,08,23,15.10
2013,08,10,08,24,15.10
2013,08,10,08,25,15.30
2013,08,10,08,26,15.30
2013,08,10,08,27,15.40
2013,08,10,08,28,15.50
2013,08,10,08,29,15.60
2013,08,10,08,30,15.70
2013,08,10,08,31,15.80
2013,08,10,08,32,15.80
2013,08,10,08,33,15.90
2013,08,10,08,34,16.00
2013,08,10,08,35,16.10
2013,08,10,08,36,16.10
2013,08,10,08,37,16.20
2013,08,10,08,38,16.30
2013,08,10,08,39,16.30
2013,08,10,08,40,16.30
2013,08,10,08,41,16.40
2013,08,10,08,42,16.40
2013,08,10,08,43,16.40
2013,08,10,08,44,16.40
2013,08,10,08,45,16.50
2013,08,10,08,46,16.60
2013,08,10,08,47,16.70
2013,08,10,08,48,16.70
2013,08,10,08,49,16.70
2013,08,10,08,50,16.70
2013,08,10,08,51,16.80
2013,08,10,08,52,16.80
2013,08,10,08,53,16.90
2013,08,10,08,54,16.90
2013,08,10,08,55,17.00
2013,08,10,08,56,17.00
2013,08,10,08,57,17.00
2013,08,10,08,58,17.00
2013,08,10,08,59,17.00
2013,08,10,09,00,17.00
2013,08,10,09,01,17.00
2013,08,10,09,02,17.00
2013,08,10,09,03,17.00
2013,08,10,09,04,17.00
2013,08,10,09,05,17.00
2013,08,10,09,06,17.10
2013,08,10,09,07,17.00
2013,08,10,09,08,17.00
2013,08,10,09,09,16.90
2013,08,10,09,10,16.80
2013,08,10,09,11,16.70
2013,08,10,09,12,16.60
2013,08,10,09,13,16.40
2013,08,10,09,14,16.40
2013,08,10,09,15,16.30
2013,08,10,09,16,16.30
2013,08,10,09,17,16.20
2013,08,10,09,18,16.10
2013,08,10,09,19,16.10
2013,08,10,09,20,16.10
2013,08,10,09,21,16.10
2013,08,10,09,22,15.90
2013,08,10,09,23,15.90
2013,08,10,09,24,15.90
2013,08,10,09,25,15.80
2013,08,10,09,26,15.80
2013,08,10,09,27,15.70
2013,08,10,09,28,15.70
2013,08,10,09,29,15.60
2013,08,10,09,30,15.50
2013,08,10,09,31,15.50
2013,08,10,09,32,15.50
2013,08,10,09,33,15.50
2013,08,10,09,34,15.50
2013,08,10,09,35,15.50
2013,08,10,09,36,15.50
2013,08,10,09,37,15.50
2013,08,10,09,38,15.50
2013,08,10,09,39,15.50
2013,08,10,09,40,15.50
2013,08,10,09,41,15.50
2013,08,10,09,42,15.50
2013,08,10,09,43,15.50
2013,08,10,09,44,15.50
2013,08,10,09,45,15.50
2013,08,10,09,46,15.60
2013,08,10,09,47,15.60
2013,08,10,09,48,15.60
2013,08,10,09,49,15.60
2013,08,10,09,50,15.50
2013,08,10,09,51,15.40
2013,08,10,09,52,15.40
2013,08,10,09,53,15.40
2013,08,10,09,54,15.30
2013,08,10,09,55,15.30
2013,08,10,09,56,15.30
2013,08,10,09,57,15.30
2013,08,10,09,58,15.30
2013,08,10,09,59,15.30
2013,08,10,10,00,15.30
2013,08,10,10,01,15.40
2013,08,10,10,02,15.40
2013,08,10,10,03,15.40
2013,08,10,10,04,15.30
2013,08,10,10,05,15.30
2013,08,10,10,06,15.30
2013,08,10,10,07,15.20
2013,08,10,10,08,15.20
2013,08,10,10,09,15.10
2013,08,10,10,10,15.10
2013,08,10,10,11,15.10
2013,08,10,10,12,15.10
2013,08,10,10,13,15.10
2013,08,10,10,14,15.10
2013,08,10,10,15,15.10
2013,08,10,10,16,15.10
2013,08,10,10,17,15.20
2013,08,10,10,18,15.20
2013,08,10,10,19,15.30
2013,08,10,10,20,15.30
2013,08,10,10,21,15.30
2013,08,10,10,22,15.30
2013,08,10,10,23,15.30
2013,08,10,10,24,15.30
2013,08,10,10,25,15.30
2013,08,10,10,26,15.30
2013,08,10,10,27,15.20
2013,08,10,10,28,15.20
2013,08,10,10,29,15.20
2013,08,10,10,30,15.20
2013,08,10,10,31,15.10
2013,08,10,10,32,15.10
2013,08,10,10,33,15.00
2013,08,10,10,34,14.90
2013,08,10,10,35,14.90
2013,08,10,10,36,14.80
2013,08,10,10,37,14.80
2013,08,10,10,38,14.80
2013,08,10,10,39,14.80
2013,08,10,10,40,14.90
2013,08,10,10,41,14.90
2013,08,10,10,42,14.90
2013,08,10,10,43,14.90
2013,08,10,10,44,14.90
2013,08,10,10,45,14.90
2013,08,10,10,46,14.90
2013,08,10,10,47,14.90
2013,08,10,10,48,15.00
2013,08,10,10,49,15.00
2013,08,10,10,50,15.00
2013,08,10,10,51,15.10
2013,08,10,10,52,15.10
2013,08,10,10,53,15.10
2013,08,10,10,54,15.10
2013,08,10,10,55,15.10
2013,08,10,10,56,15.00
2013,08,10,10,57,15.00
2013,08,10,10,58,14.90
2013,08,10,10,59,14.90
2013,08,10,11,00,14.80
2013,08,10,11,01,14.80
2013,08,10,11,02,14.80
2013,08,10,11,03,14.80
2013,08,10,11,04,14.80
2013,08,10,11,05,14.80
2013,08,10,11,06,14.80
2013,08,10,11,07,14.80
2013,08,10,11,08,14.80
2013,08,10,11,09,14.80
2013,08,10,11,10,14.80
2013,08,10,11,11,14.90
2013,08,10,11,12,14.90
2013,08,10,11,13,14.90
2013,08,10,11,14,14.90
2013,08,10,11,15,14.90
2013,08,10,11,16,14.90
2013,08,10,11,17,14.80
2013,08,10,11,18,14.80
2013,08,10,11,19,14.80
2013,08,10,11,20,14.80
2013,08,10,11,21,14.80
2013,08,10,11,22,14.80
2013,08,10,11,23,14.80
2013,08,10,11,24,14.80
2013,08,10,11,25,14.80
2013,08,10,11,26,14.90
2013,08,10,11,27,14.80
2013,08,10,11,28,14.80
2013,08,10,11,29,14.80
2013,08,10,11,30,14.80
2013,08,10,11,31,14.80
2013,08,10,11,32,14.80
2013,08,10,11,33,14.70
2013,08,10,11,34,14.70
2013,08,10,11,35,14.60
2013,08,10,11,36,14.60
2013,08,10,11,37,14.50
2013,08,10,11,38,14.50
2013,08,10,11,39,14.40
2013,08,10,11,40,14.40
2013,08,10,11,41,14.40
2013,08,10,11,42,14.50
2013,08,10,11,43,14.50
2013,08,10,11,44,14.50
2013,08,10,11,45,14.50
2013,08,10,11,46,14.50
2013,08,10,11,47,14.40
2013,08,10,11,48,14.40
2013,08,10,11,49,14.40
2013,08,10,11,50,14.40
2013,08,10,11,51,14.30
2013,08,10,11,52,14.30
2013,08,10,11,53,14.30
2013,08,10,11,54,14.30
2013,08,10,11,55,14.30
2013,08,10,11,56,14.40
2013,08,10,11,57,14.50
2013,08,10,11,58,14.60
2013,08,10,11,59,14.70
2013,08,10,12,00,14.80
2013,08,10,12,01,15.00
2013,08,10,12,02,15.00
2013,08,10,12,03,15.00
2013,08,10,12,04,15.00
2013,08,10,12,05,15.00
2013,08,10,12,06,15.00
2013,08,10,12,07,15.00
2013,08,10,12,08,15.00
2013,08,10,12,09,15.10
2013,08,10,12,10,15.10
2013,08,10,12,11,15.00
2013,08,10,12,12,15.00
2013,08,10,12,13,14.90
2013,08,10,12,14,14.90
2013,08,10,12,15,15.00
2013,08,10,12,16,15.10
2013,08,10,12,17,15.10
2013,08,10,12,18,15.10
2013,08,10,12,19,15.10
2013,08,10,12,20,15.20
2013,08,10,12,21,15.30
2013,08,10,12,22,15.30
2013,08,10,12,23,15.40
2013,08,10,12,24,15.50
2013,08,10,12,25,15.50
2013,08,10,12,26,15.60
2013,08,10,12,27,15.60
2013,08,10,12,28,15.70
2013,08,10,12,29,15.80
2013,08,10,12,30,15.80
2013,08,10,12,31,15.90
2013,08,10,12,32,15.90
2013,08,10,12,33,16.00
2013,08,10,12,34,16.10
2013,08,10,12,35,16.20
2013,08,10,12,36,16.30
2013,08,10,12,37,16.40
2013,08,10,12,38,16.40
2013,08,10,12,39,16.40
2013,08,10,12,40,16.40
2013,08,10,12,41,16.40
2013,08,10,12,42,16.40
2013,08,10,12,43,16.50
2013,08,10,12,44,16.60
2013,08,10,12,45,16.70
2013,08,10,12,46,16.70
2013,08,10,12,47,16.70
2013,08,10,12,48,16.90
2013,08,10,12,49,16.90
2013,08,10,12,50,17.00
2013,08,10,12,51,17.00
2013,08,10,12,52,17.10
2013,08,10,12,53,17.30
2013,08,10,12,54,17.30
2013,08,10,12,55,17.40
2013,08,10,12,56,17.60
2013,08,10,12,57,17.80
2013,08,10,12,58,17.90
2013,08,10,12,59,18.00
2013,08,10,13,00,18.10
2013,08,10,13,01,18.20
2013,08,10,13,02,18.20
2013,08,10,13,03,18.20
2013,08,10,13,04,18.20
2013,08,10,13,05,18.30
2013,08,10,13,06,18.40
2013,08,10,13,07,18.60
2013,08,10,13,08,18.70
2013,08,10,13,09,18.70
2013,08,10,13,10,18.70
2013,08,10,13,11,18.70
2013,08,10,13,12,18.70
2013,08,10,13,13,18.70
2013,08,10,13,14,18.60
2013,08,10,13,15,18.60
2013,08,10,13,16,18.70
2013,08,10,13,17,18.70
2013,08,10,13,18,18.80
2013,08,10,13,19,18.90
2013,08,10,13,20,18.90
2013,08,10,13,21,19.00
2013,08,10,13,22,19.10
2013,08,10,13,23,19.10
2013,08,10,13,24,19.10
2013,08,10,13,25,19.10
2013,08,10,13,26,19.20
2013,08,10,13,27,19.40
2013,08,10,13,28,19.50
2013,08,10,13,29,19.60
2013,08,10,13,30,19.60
2013,08,10,13,31,19.60
2013,08,10,13,32,19.70
2013,08,10,13,33,19.70
2013,08,10,13,34,19.80
2013,08,10,13,35,19.90
2013,08,10,13,36,19.90
2013,08,10,13,37,19.90
2013,08,10,13,38,20.00
2013,08,10,13,39,20.10
2013,08,10,13,40,20.20
2013,08,10,13,41,20.20
2013,08,10,13,42,20.30
2013,08,10,13,43,20.40
2013,08,10,13,44,20.50
2013,08,10,13,45,20.60
2013,08,10,13,46,20.60
2013,08,10,13,47,20.70
2013,08,10,13,48,20.70
2013,08,10,13,49,20.70
2013,08,10,13,50,20.80
2013,08,10,13,51,20.80
2013,08,10,13,52,20.80
2013,08,10,13,53,20.90
2013,08,10,13,54,21.00
2013,08,10,13,55,21.10
2013,08,10,13,56,21.20
2013,08,10,13,57,21.20
2013,08,10,13,58,21.30
2013,08,10,13,59,21.30
2013,08,10,14,00,21.30
2013,08,10,14,01,21.30
2013,08,10,14,02,21.30
2013,08,10,14,03,21.30
2013,08,10,14,04,21.20
2013,08,10,14,05,21.10
2013,08,10,14,06,21.00
2013,08,10,14,07,20.90
2013,08,10,14,08,20.90
2013,08,10,14,09,20.70
2013,08,10,14,10,20.50
2013,08,10,14,11,20.40
2013,08,10,14,12,20.30
2013,08,10,14,13,20.40
2013,08,10,14,14,20.40
2013,08,10,14,15,20.40
2013,08,10,14,16,20.50
2013,08,10,14,17,20.60
2013,08,10,14,18,20.60
2013,08,10,14,19,20.70
2013,08,10,14,20,20.70
2013,08,10,14,21,20.60
2013,08,10,14,22,20.60
2013,08,10,14,23,20.70
2013,08,10,14,24,20.80
2013,08,10,14,25,20.80
2013,08,10,14,26,20.90
2013,08,10,14,27,21.00
2013,08,10,14,28,21.10
2013,08,10,14,29,21.30
2013,08,10,14,30,21.30
2013,08,10,14,31,21.30
2013,08,10,14,32,21.30
2013,08,10,14,33,21.30
2013,08,10,14,34,21.50
2013,08,10,14,35,21.60
2013,08,10,14,36,21.60
2013,08,10,14,37,21.60
2013,08,10,14,38,21.60
2013,08,10,14,39,21.60
2013,08,10,14,40,21.70
2013,08,10,14,41,21.80
2013,08,10,14,42,21.80
2013,08,10,14,43,21.90
2013,08,10,14,44,21.90
2013,08,10,14,45,21.90
2013,08,10,14,46,22.00
2013,08,10,14,47,22.00
2013,08,10,14,48,22.00
2013,08,10,14,49,22.10
2013,08,10,14,50,22.20
2013,08,10,14,51,22.30
2013,08,10,14,52,22.40
2013,08,10,14,53,22.40
2013,08,10,14,54,22.40
2013,08,10,14,55,22.40
2013,08,10,14,56,22.30
2013,08,10,14,57,22.30
2013,08,10,14,58,22.30
2013,08,10,14,59,22.20
2013,08,10,15,00,22.20
2013,08,10,15,01,22.10
2013,08,10,15,02,22.20
2013,08,10,15,03,22.10
2013,08,10,15,04,22.10
2013,08,10,15,05,22.10
2013,08,10,15,06,22.10
2013,08,10,15,07,22.20
2013,08,10,15,08,22.20
2013,08,10,15,09,22.20
2013,08,10,15,10,22.10
2013,08,10,15,11,22.20
2013,08,10,15,12,22.20
2013,08,10,15,13,22.20
2013,08,10,15,14,22.20
2013,08,10,15,15,22.30
2013,08,10,15,16,22.30
2013,08,10,15,17,22.30
2013,08,10,15,18,22.40
2013,08,10,15,19,22.60
2013,08,10,15,20,22.70
2013,08,10,15,21,22.70
2013,08,10,15,22,22.70
2013,08,10,15,23,22.80
2013,08,10,15,24,22.80
2013,08,10,15,25,22.80
2013,08,10,15,26,22.80
2013,08,10,15,27,22.80
2013,08,10,15,28,22.70
2013,08,10,15,29,22.60
2013,08,10,15,30,22.70
2013,08,10,15,31,22.80
2013,08,10,15,32,22.90
2013,08,10,15,33,23.00
2013,08,10,15,34,23.10
2013,08,10,15,35,23.20
2013,08,10,15,36,23.20
2013,08,10,15,37,23.20
2013,08,10,15,38,23.10
2013,08,10,15,39,23.00
2013,08,10,15,40,22.90
2013,08,10,15,41,22.90
2013,08,10,15,42,22.80
2013,08,10,15,43,22.80
2013,08,10,15,44,22.70
2013,08,10,15,45,22.70
2013,08,10,15,46,22.60
2013,08,10,15,47,22.60
2013,08,10,15,48,22.60
2013,08,10,15,49,22.50
2013,08,10,15,50,22.50
2013,08,10,15,51,22.50
2013,08,10,15,52,22.50
2013,08,10,15,53,22.50
2013,08,10,15,54,22.50
2013,08,10,15,55,22.50
2013,08,10,15,56,22.50
2013,08,10,15,57,22.40
2013,08,10,15,58,22.50
2013,08,10,15,59,22.50
2013,08,10,16,00,22.60
2013,08,10,16,01,22.60
2013,08,10,16,02,22.60
2013,08,10,16,03,22.60
2013,08,10,16,04,22.50
2013,08,10,16,05,22.50
2013,08,10,16,06,22.50
2013,08,10,16,07,22.60
2013,08,10,16,08,22.70
2013,08,10,16,09,22.70
2013,08,10,16,10,22.70
2013,08,10,16,11,22.70
2013,08,10,16,12,22.80
2013,08,10,16,13,22.80
2013,08,10,16,14,22.90
2013,08,10,16,15,22.90
2013,08,10,16,16,22.90
2013,08,10,16,17,23.10
2013,08,10,16,18,23.10
2013,08,10,16,19,23.00
2013,08,10,16,20,22.90
2013,08,10,16,21,22.90
2013,08,10,16,22,22.90
2013,08,10,16,23,22.90
2013,08,10,16,24,22.90
2013,08,10,16,25,22.90
2013,08,10,16,26,22.90
2013,08,10,16,27,23.00
2013,08,10,16,28,23.10
2013,08,10,16,29,23.20
2013,08,10,16,30,23.30
2013,08,10,16,31,23.20
2013,08,10,16,32,23.10
2013,08,10,16,33,23.10
2013,08,10,16,34,23.10
2013,08,10,16,35,23.10
2013,08,10,16,36,23.10
2013,08,10,16,37,23.10
2013,08,10,16,38,23.10
2013,08,10,16,39,23.10
2013,08,10,16,40,23.00
2013,08,10,16,41,23.10
2013,08,10,16,42,23.10
2013,08,10,16,43,23.10
2013,08,10,16,44,23.10
2013,08,10,16,45,23.10
2013,08,10,16,46,23.00
2013,08,10,16,47,22.90
2013,08,10,16,48,22.90
2013,08,10,16,49,22.90
2013,08,10,16,50,22.90
2013,08,10,16,51,22.90
2013,08,10,16,52,22.90
2013,08,10,16,53,22.90
2013,08,10,16,54,23.00
2013,08,10,16,55,23.10
2013,08,10,16,56,23.20
2013,08,10,16,57,23.20
2013,08,10,16,58,23.30
2013,08,10,16,59,23.30
2013,08,10,17,00,23.30
2013,08,10,17,01,23.30
2013,08,10,17,02,23.30
2013,08,10,17,03,23.30
2013,08,10,17,04,23.30
2013,08,10,17,05,23.30
2013,08,10,17,06,23.30
2013,08,10,17,07,23.30
2013,08,10,17,08,23.30
2013,08,10,17,09,23.30
2013,08,10,17,10,23.30
2013,08,10,17,11,23.30
2013,08,10,17,12,23.30
2013,08,10,17,13,23.30
2013,08,10,17,14,23.30
2013,08,10,17,15,23.40
2013,08,10,17,16,23.40
2013,08,10,17,17,23.40
2013,08,10,17,18,23.40
2013,08,10,17,19,23.40